Regional Weather Roundup
Issued by NWS

Home | Current Version | Previous Version | Text Only | Print | Product List | Glossary On
Versions: 1 2 3 4 5 6 7 8 9 10 11 12 13 14 15 16 17 18 19 20 21 22 23 24 25 26 27 28 29 30 31 32 33 34 35 36 37 38 39 40 41 42 43 44 45 46 47 48 49 50
000
ASUS42 KFFC 250503
RWRGA
WEATHER ROUNDUP FOR GEORGIA
NATIONAL WEATHER SERVICE PEACHTREE CITY GA
100 AM EDT FRI JUL 25 2014

NOTE: "FAIR" INDICATES FEW OR NO CLOUDS BELOW 12,000 FEET WITH NO
SIGNIFICANT WEATHER AND/OR OBSTRUCTIONS TO VISIBILITY.

* = USE WITH CAUTION. THE STATIONS MARKED WITH AN ASTERISK MAY NOT
REPORT WEATHER SUCH AS PRECIPITATION, FOG, OR THUNDER AND ARE NOT
QUALITY CONTROLLED BY NWS.

THE REMARK "TC" DENOTES TEMPERATURE READING IN DEGREES CELSIUS.

GAZ001>058-250600-
NORTH GEORGIA

CITY           SKY/WX    TMP DP  RH WIND       PRES   REMARKS
ATLANTA        MOCLDY    73  70  90 NW8       30.00R
ATHENS         PTCLDY    73  70  90 CALM      29.98S
CHAMBLEE       MOCLDY    73  69  87 W8        30.01R
PEACHTREE CITY CLOUDY    72  71  97 CALM      30.02R FOG
ROME           PTCLDY    74  68  81 N5        30.00R
WEST ATLANTA   PTCLDY    73  70  90 CALM      30.00R
GAINESVILLE    MOCLDY    73  71  93 SW5       30.04R
CARTERSVILLE   CLOUDY    73  70  90 CALM      30.01R


CITY           SKY/WX    TMP DP  RH WIND       PRES   REMARKS
DALTON*        CLEAR     70  66  88 N7        30.01R
MARIETTA       CLEAR     73  72  98 W7        30.02R
$$

GAZ059>098-102>109-250600-
CENTRAL GEORGIA

CITY           SKY/WX    TMP DP  RH WIND       PRES   REMARKS
AUGUSTA-BUSH   MOCLDY    76  72  87 CALM      29.95R
AUGUSTA-DANIEL PTCLDY    80  72  76 CALM      29.97R
COLUMBUS       MOCLDY    79  71  76 NW3       29.99R
MACON          PTCLDY    76  73  91 SW5       29.98S
ROBINS AFB     PTCLDY    80  73  80 SW7       29.98S


CITY           SKY/WX    TMP DP  RH WIND       PRES   REMARKS
LAGRANGE*      CLOUDY    77  76  98 CALM      30.01R FOG
SYLVANIA*      PTCLDY    80  75  84 SW3       29.98S
MILLEDGEVILLE* FOG       61  61 100 CALM      29.97S VSB 1/4
$$

GAZ099>101-110>166-250600-
SOUTH GEORGIA

CITY           SKY/WX    TMP DP  RH WIND       PRES   REMARKS
SAVANNAH       CLEAR     80  71  74 W3        29.97F
VALDOSTA       PTCLDY    80  73  79 VRB3      30.01F
ALMA           CLEAR     77  73  87 SW5       30.00R
ST SIMONS      PTCLDY    80  72  76 SW8       29.99S
FT STEWART     CLEAR     80  72  75 W8        29.97S
ALBANY         CLEAR     78  74  87 SW5       30.02R
HUNTER AFB     PTCLDY    81  72  75 SW6       29.96R
MOODY AFB      CLEAR     79  79  99 SW10      30.00S
BRUNSWICK      PTCLDY    81  72  74 CALM      30.00S


CITY           SKY/WX    TMP DP  RH WIND       PRES   REMARKS
BAINBRIDGE*    CLEAR     79  77  94 SW3       30.01F
MOULTRIE*      CLEAR     77  73  88 SW5       30.03R
VIDALIA*         N/A     79  73  83 W6        30.00R
WAYCROSS*      CLEAR     79  77  94 W5        29.99F
DOUGLAS*       CLEAR     77  73  88 SW5       30.02S
$$


USA.gov is the U.S. government's official web portal to all federal, state and local government web resources and services.